Flag for Brazil Weather past 2 weeks in Brasilia, Distrito Federal, Brazil

Now
79 °F

Passing clouds.


Feels Like: 81 °F
Forecast: 66 / 79 °F
Wind: 8 mph from East

Location: Brasilia Aeroporto

Current Time: Apr 21, 2015 at 6:18:08 PM

Latest Report: Apr 21, 2015 at 5:00 PM


Visibility: N/A

Pressure: 30.01 "Hg

Humidity: 61%

Dew point: 64 °F

Location of BrasiliaLocation

Historic Weather in Brasilia — Graph

°F

Brasilia temperature yesterday

Maximum temperature yesterday: 84 °F (at 1:00 PM)
Minimum temperature yesterday: 68 °F (at 2:00 AM)
Average temperature yesterday: 74 °F

Past Weeks' High & Low Weather Summary

 TemperatureHumidityPressure
High84 °F (Apr 19, 12:00 PM)100% (Apr 7, 10:00 PM)30.21 "Hg (Apr 7, 10:00 PM)
Low32 °F (Apr 7, 10:00 PM)45% (Apr 20, 3:00 PM)29.95 "Hg (Apr 7, 3:00 PM)
Average71 °F77%30.09 "Hg
* Reported Apr 6 5:00 PM — Apr 21 5:00 PM, Brasilia, Weather by CustomWeather, © 2015

Note: Actual official high and low records may vary slightly from our data, if they occured in-between our weather recording intervals... More about our weather records

Advertising

Brasilia weather history for previous 24 hours

 ConditionsComfort  
Time TempWeatherWind HumidityBarometerVisibility
5:00 PM
Tue, Apr 21
79 °FPassing clouds.8 mph61%30.01 "HgN/A
4:00 PM81 °FPassing clouds.7 mph58%29.98 "HgN/A
3:00 PM79 °FPassing clouds.8 mph54%30.01 "HgN/A
2:00 PM79 °FPassing clouds.9 mph58%30.04 "HgN/A
1:00 PM81 °FScattered clouds.6 mph54%30.07 "HgN/A
12:00 PM79 °FScattered clouds.8 mph54%30.09 "HgN/A
11:00 AM75 °FSunny.7 mph65%30.12 "Hg10 mi
10:00 AM72 °FBroken clouds.2 mph78%30.15 "HgN/A
9:00 AM68 °FBroken clouds.3 mph83%30.12 "HgN/A
8:00 AM66 °FPartly sunny.2 mph94%30.12 "HgN/A
7:00 AM66 °FMore clouds than sun.7 mph88%30.09 "HgN/A
6:00 AM66 °FLight rain. Passing clouds.5 mph88%30.09 "HgN/A
5:00 AM66 °FLight rain. Passing clouds.6 mph94%30.09 "Hg4 mi
4:00 AM68 °FLight rain. Partly cloudy.3 mph88%30.09 "Hg4 mi
3:00 AM66 °FThundershowers. Partly cloudy.5 mph94%30.07 "Hg4 mi
2:00 AM68 °FThundershowers. Partly cloudy.6 mph88%30.09 "HgN/A
1:00 AM68 °FThundershowers. Partly cloudy.9 mph88%30.09 "HgN/A
12:00 AM70 °FThundershowers. Passing clouds.2 mph88%30.09 "Hg4 mi
11:00 PM
Mon, Apr 20
70 °FThundershowers. Partly cloudy.3 mph88%30.09 "HgN/A
10:00 PM68 °FThundershowers. Partly cloudy.5 mph88%30.09 "Hg4 mi
9:00 PM70 °FThunderstorms. Passing clouds.6 mph83%30.07 "HgN/A
8:00 PM70 °FLight rain. Passing clouds.10 mph88%30.07 "Hg2 mi
7:45 PM70 °FLight rain. Passing clouds.15 mph88%30.04 "Hg2 mi
7:00 PM75 °FPassing clouds.6 mph65%30.04 "HgN/A
6:00 PM77 °FPassing clouds.7 mph61%30.01 "HgN/A
Weather by CustomWeather, © 2015

See weather overviewHow to use our weather pages